TimeCST,TemperatureF,Dew PointF,Humidity,Sea Level PressureIn,VisibilityMPH,Wind Direction,Wind SpeedMPH,Gust SpeedMPH,PrecipitationIn,Events,Conditions,WindDirDegrees,DateUTC
12:52 AM,52.0,21.9,31,29.92,10.0,South,5.8,-,N/A,,Scattered Clouds,180,2014-01-26 06:52:00
1:52 AM,54.0,19.0,25,29.88,10.0,South,8.1,-,N/A,,Mostly Cloudy,170,2014-01-26 07:52:00
2:52 AM,53.1,19.9,27,29.86,10.0,SSW,6.9,-,N/A,,Mostly Cloudy,200,2014-01-26 08:52:00
3:52 AM,54.0,19.0,25,29.83,10.0,SSW,13.8,-,N/A,,Overcast,200,2014-01-26 09:52:00
4:52 AM,52.0,19.9,28,29.81,10.0,SSW,16.1,-,N/A,,Partly Cloudy,200,2014-01-26 10:52:00
5:52 AM,48.9,19.9,32,29.81,10.0,South,8.1,-,N/A,,Clear,190,2014-01-26 11:52:00
6:52 AM,48.0,21.9,36,29.80,10.0,SSW,8.1,-,N/A,,Clear,200,2014-01-26 12:52:00
7:52 AM,46.0,23.0,40,29.79,10.0,SSW,6.9,-,N/A,,Clear,200,2014-01-26 13:52:00
8:52 AM,50.0,24.1,36,29.78,10.0,SSW,12.7,-,N/A,,Clear,210,2014-01-26 14:52:00
9:52 AM,55.9,25.0,30,29.77,10.0,SW,13.8,-,N/A,,Clear,220,2014-01-26 15:52:00
10:52 AM,63.0,24.1,23,29.76,10.0,WSW,11.5,-,N/A,,Clear,240,2014-01-26 16:52:00
11:52 AM,69.1,15.1,13,29.72,10.0,WSW,10.4,19.6,N/A,,Clear,240,2014-01-26 17:52:00
12:52 PM,71.1,15.1,12,29.68,10.0,West,13.8,23.0,N/A,,Clear,260,2014-01-26 18:52:00
1:52 PM,70.0,18.0,14,29.66,10.0,WNW,20.7,25.3,N/A,,Clear,300,2014-01-26 19:52:00
2:52 PM,70.0,17.1,13,29.65,10.0,WNW,15.0,25.3,N/A,,Clear,290,2014-01-26 20:52:00
3:52 PM,70.0,14.0,12,29.66,10.0,WNW,15.0,20.7,N/A,,Clear,290,2014-01-26 21:52:00
4:52 PM,69.1,12.9,11,29.68,10.0,NW,12.7,-,N/A,,Clear,310,2014-01-26 22:52:00
5:52 PM,64.0,14.0,14,29.70,10.0,NNW,10.4,-,N/A,,Clear,340,2014-01-26 23:52:00
6:52 PM,61.0,12.9,15,29.73,10.0,North,5.8,-,N/A,,Clear,360,2014-01-27 00:52:00
7:52 PM,59.0,14.0,17,29.76,10.0,North,3.5,-,N/A,,Clear,360,2014-01-27 01:52:00
8:52 PM,48.9,15.1,26,29.79,10.0,South,5.8,-,N/A,,Clear,180,2014-01-27 02:52:00
9:52 PM,46.0,15.1,29,29.82,10.0,SSW,3.5,-,N/A,,Clear,210,2014-01-27 03:52:00
10:52 PM,46.0,15.1,29,29.83,10.0,Calm,Calm,-,N/A,,Clear,0,2014-01-27 04:52:00
11:52 PM,44.1,16.0,32,29.83,10.0,South,3.5,-,N/A,,Clear,170,2014-01-27 05:52:00